Time,TemperatureF,DewpointF,PressureIn,WindDirection,WindDirectionDegrees,WindSpeedMPH,WindSpeedGustMPH,Humidity,HourlyPrecipIn,Conditions,Clouds,dailyrainin,SoftwareType,DateUTC
2013-04-19 00:06:00,58.1,57.5,29.43,SSE,157,5.3,-999.0,98,-99.99,,,0.00,Acu-Link.com,2013-04-19 04:06:00,
2013-04-19 00:22:00,57.9,57.6,29.41,South,180,2.2,-999.0,99,-99.99,,,0.02,Acu-Link.com,2013-04-19 04:22:00,
2013-04-19 00:38:00,57.7,57.4,29.40,South,180,3.2,-999.0,99,-99.99,,,0.07,Acu-Link.com,2013-04-19 04:38:00,
2013-04-19 00:53:00,57.6,57.3,29.41,South,180,2.2,-999.0,99,-99.99,,,0.07,Acu-Link.com,2013-04-19 04:53:00,
2013-04-19 01:08:00,57.6,57.3,29.40,SSE,157,2.7,-999.0,99,-99.99,,,0.14,Acu-Link.com,2013-04-19 05:08:00,
2013-04-19 01:23:00,57.6,57.3,29.39,SW,225,2.2,-999.0,99,-99.99,,,0.17,Acu-Link.com,2013-04-19 05:23:00,
2013-04-19 01:38:00,57.6,57.3,29.37,East,90,5.3,-999.0,99,-99.99,,,0.24,Acu-Link.com,2013-04-19 05:38:00,
2013-04-19 01:55:00,57.6,57.3,29.36,South,180,2.7,-999.0,99,-99.99,,,0.36,Acu-Link.com,2013-04-19 05:55:00,
2013-04-19 02:12:00,57.6,57.3,29.35,SSE,157,3.7,-999.0,99,-99.99,,,0.38,Acu-Link.com,2013-04-19 06:12:00,
2013-04-19 02:27:00,57.4,57.1,29.33,South,180,2.7,-999.0,99,-99.99,,,0.42,Acu-Link.com,2013-04-19 06:27:00,
2013-04-19 02:43:00,57.6,57.3,29.31,West,270,4.2,-999.0,99,-99.99,,,0.48,Acu-Link.com,2013-04-19 06:43:00,
2013-04-19 02:58:00,57.6,57.3,29.30,SW,225,3.2,-999.0,99,-99.99,,,0.50,Acu-Link.com,2013-04-19 06:58:00,
2013-04-19 03:14:00,57.6,57.3,29.30,South,180,3.7,-999.0,99,-99.99,,,0.58,Acu-Link.com,2013-04-19 07:14:00,
2013-04-19 03:33:00,57.4,56.8,29.28,South,180,4.7,-999.0,98,-99.99,,,0.59,Acu-Link.com,2013-04-19 07:33:00,
2013-04-19 03:49:00,57.2,56.9,29.26,South,180,5.3,-999.0,99,-99.99,,,0.61,Acu-Link.com,2013-04-19 07:49:00,
2013-04-19 04:04:00,57.0,56.7,29.25,South,180,3.2,-999.0,99,-99.99,,,0.61,Acu-Link.com,2013-04-19 08:04:00,
2013-04-19 04:19:00,57.2,56.9,29.23,South,180,4.7,-999.0,99,-99.99,,,0.63,Acu-Link.com,2013-04-19 08:19:00,
2013-04-19 04:35:00,57.4,57.1,29.21,South,180,5.3,-999.0,99,-99.99,,,0.65,Acu-Link.com,2013-04-19 08:35:00,
2013-04-19 04:50:00,57.6,57.3,29.21,SSE,157,5.3,-999.0,99,-99.99,,,0.67,Acu-Link.com,2013-04-19 08:50:00,
2013-04-19 05:05:00,57.9,57.6,29.21,SW,225,4.2,-999.0,99,-99.99,,,0.70,Acu-Link.com,2013-04-19 09:05:00,
2013-04-19 05:20:00,58.1,57.8,29.19,South,180,5.8,-999.0,99,-99.99,,,0.75,Acu-Link.com,2013-04-19 09:20:00,
2013-04-19 05:36:00,58.1,57.8,29.18,South,180,1.7,-999.0,99,-99.99,,,0.85,Acu-Link.com,2013-04-19 09:36:00,
2013-04-19 05:52:00,51.3,49.3,29.22,NW,315,9.4,-999.0,93,-99.99,,,0.88,Acu-Link.com,2013-04-19 09:52:00,
2013-04-19 06:07:00,47.5,46.7,29.23,West,270,3.7,-999.0,97,-99.99,,,0.92,Acu-Link.com,2013-04-19 10:07:00,
2013-04-19 06:22:00,46.2,45.7,29.23,West,270,4.7,-999.0,98,-99.99,,,0.93,Acu-Link.com,2013-04-19 10:22:00,
2013-04-19 06:37:00,45.5,45.2,29.24,WSW,247,2.7,-999.0,99,-99.99,,,0.98,Acu-Link.com,2013-04-19 10:37:00,
2013-04-19 06:52:00,45.0,44.7,29.25,NNW,337,3.7,-999.0,99,-99.99,,,1.01,Acu-Link.com,2013-04-19 10:52:00,
2013-04-19 07:08:00,44.4,44.1,29.25,WSW,247,3.2,-999.0,99,-99.99,,,1.02,Acu-Link.com,2013-04-19 11:08:00,
2013-04-19 07:23:00,43.3,43.0,29.26,SW,225,7.3,-999.0,99,-99.99,,,1.03,Acu-Link.com,2013-04-19 11:23:00,
2013-04-19 07:38:00,42.1,41.6,29.26,West,270,7.8,-999.0,98,-99.99,,,1.04,Acu-Link.com,2013-04-19 11:38:00,
2013-04-19 07:53:00,41.4,40.9,29.26,SW,225,3.7,-999.0,98,-99.99,,,1.04,Acu-Link.com,2013-04-19 11:53:00,
2013-04-19 08:09:00,41.2,40.7,29.27,SW,225,5.3,-999.0,98,-99.99,,,1.04,Acu-Link.com,2013-04-19 12:09:00,
2013-04-19 08:24:00,40.3,39.8,29.28,NNW,337,5.3,-999.0,98,-99.99,,,1.05,Acu-Link.com,2013-04-19 12:24:00,
2013-04-19 08:40:00,39.6,38.6,29.29,West,270,10.9,-999.0,96,-99.99,,,1.05,Acu-Link.com,2013-04-19 12:40:00,
2013-04-19 08:55:00,39.0,37.7,29.29,West,270,6.8,-999.0,95,-99.99,,,1.05,Acu-Link.com,2013-04-19 12:55:00,
2013-04-19 09:10:00,39.0,36.3,29.30,West,270,7.8,-999.0,90,-99.99,,,1.05,Acu-Link.com,2013-04-19 13:10:00,
2013-04-19 09:25:00,39.2,36.0,29.30,WSW,247,8.3,-999.0,88,-99.99,,,1.05,Acu-Link.com,2013-04-19 13:25:00,
2013-04-19 09:40:00,39.2,36.0,29.30,West,270,11.4,-999.0,88,-99.99,,,1.05,Acu-Link.com,2013-04-19 13:40:00,
2013-04-19 09:56:00,38.5,35.3,29.31,West,270,6.8,-999.0,88,-99.99,,,1.05,Acu-Link.com,2013-04-19 13:56:00,
2013-04-19 10:11:00,38.8,34.4,29.31,West,270,6.8,-999.0,84,-99.99,,,1.05,Acu-Link.com,2013-04-19 14:11:00,
2013-04-19 10:26:00,39.4,33.1,29.30,West,270,8.3,-999.0,78,-99.99,,,1.05,Acu-Link.com,2013-04-19 14:26:00,
2013-04-19 10:41:00,39.0,33.4,29.31,WSW,247,11.4,-999.0,80,-99.99,,,1.05,Acu-Link.com,2013-04-19 14:41:00,
2013-04-19 10:56:00,38.8,33.5,29.32,WSW,247,10.9,-999.0,81,-99.99,,,1.05,Acu-Link.com,2013-04-19 14:56:00,
2013-04-19 11:11:00,38.8,33.5,29.33,WSW,247,8.9,-999.0,81,-99.99,,,1.05,Acu-Link.com,2013-04-19 15:11:00,
2013-04-19 11:26:00,39.4,33.1,29.33,WSW,247,9.4,-999.0,78,-99.99,,,1.05,Acu-Link.com,2013-04-19 15:26:00,
2013-04-19 11:41:00,39.2,32.9,29.35,West,270,6.3,-999.0,78,-99.99,,,1.05,Acu-Link.com,2013-04-19 15:41:00,
2013-04-19 11:56:00,38.8,32.5,29.35,West,270,9.9,-999.0,78,-99.99,,,1.05,Acu-Link.com,2013-04-19 15:56:00,
2013-04-19 12:12:00,39.4,33.1,29.36,West,270,9.9,-999.0,78,-99.99,,,1.05,Acu-Link.com,2013-04-19 16:12:00,
2013-04-19 12:27:00,40.1,32.8,29.36,West,270,7.8,-999.0,75,-99.99,,,1.05,Acu-Link.com,2013-04-19 16:27:00,
2013-04-19 12:42:00,39.6,32.0,29.36,West,270,10.4,-999.0,74,-99.99,,,1.05,Acu-Link.com,2013-04-19 16:42:00,
2013-04-19 12:57:00,39.7,31.8,29.35,SW,225,7.8,-999.0,73,-99.99,,,1.05,Acu-Link.com,2013-04-19 16:57:00,
2013-04-19 13:12:00,39.4,31.8,29.35,West,270,6.3,-999.0,74,-99.99,,,1.05,Acu-Link.com,2013-04-19 17:12:00,
2013-04-19 13:27:00,39.4,32.5,29.36,WSW,247,15.5,-999.0,76,-99.99,,,1.05,Acu-Link.com,2013-04-19 17:27:00,
2013-04-19 13:43:00,39.7,31.8,29.36,West,270,9.9,-999.0,73,-99.99,,,1.06,Acu-Link.com,2013-04-19 17:43:00,
2013-04-19 13:58:00,40.5,31.1,29.37,West,270,10.4,-999.0,69,-99.99,,,1.06,Acu-Link.com,2013-04-19 17:58:00,
2013-04-19 14:13:00,39.9,30.9,29.36,SW,225,8.9,-999.0,70,-99.99,,,1.06,Acu-Link.com,2013-04-19 18:13:00,
2013-04-19 14:28:00,40.5,30.0,29.37,WSW,247,8.9,-999.0,66,-99.99,,,1.06,Acu-Link.com,2013-04-19 18:28:00,
2013-04-19 14:43:00,40.6,30.9,29.38,SW,225,8.3,-999.0,68,-99.99,,,1.06,Acu-Link.com,2013-04-19 18:43:00,
2013-04-19 15:03:00,40.5,30.4,29.39,West,270,17.6,-999.0,67,-99.99,,,1.06,Acu-Link.com,2013-04-19 19:03:00,
2013-04-19 15:23:00,40.3,31.3,29.40,SW,225,6.3,-999.0,70,-99.99,,,1.06,Acu-Link.com,2013-04-19 19:23:00,
2013-04-19 15:38:00,40.1,31.1,29.40,SW,225,10.9,-999.0,70,-99.99,,,1.06,Acu-Link.com,2013-04-19 19:38:00,
2013-04-19 15:55:00,39.6,32.0,29.41,WSW,247,7.8,-999.0,74,-99.99,,,1.06,Acu-Link.com,2013-04-19 19:55:00,
2013-04-19 16:10:00,39.6,32.7,29.42,WNW,292,17.1,-999.0,76,-99.99,,,1.06,Acu-Link.com,2013-04-19 20:10:00,
2013-04-19 16:26:00,39.4,32.1,29.42,West,270,8.3,-999.0,75,-99.99,,,1.06,Acu-Link.com,2013-04-19 20:26:00,
2013-04-19 16:41:00,39.0,32.4,29.43,WSW,247,9.9,-999.0,77,-99.99,,,1.06,Acu-Link.com,2013-04-19 20:41:00,
2013-04-19 17:00:00,40.8,31.4,29.43,SW,225,14.0,-999.0,69,-99.99,,,1.06,Acu-Link.com,2013-04-19 21:00:00,
2013-04-19 17:16:00,39.6,30.6,29.44,SW,225,8.9,-999.0,70,-99.99,,,1.06,Acu-Link.com,2013-04-19 21:16:00,
2013-04-19 17:31:00,40.1,31.5,29.46,West,270,5.8,-999.0,71,-99.99,,,1.06,Acu-Link.com,2013-04-19 21:31:00,
2013-04-19 17:46:00,39.4,31.8,29.47,WSW,247,8.3,-999.0,74,-99.99,,,1.06,Acu-Link.com,2013-04-19 21:46:00,
2013-04-19 18:01:00,39.9,31.6,29.48,SW,225,8.9,-999.0,72,-99.99,,,1.06,Acu-Link.com,2013-04-19 22:01:00,
2013-04-19 18:17:00,40.3,31.3,29.49,SSW,202,6.3,-999.0,70,-99.99,,,1.06,Acu-Link.com,2013-04-19 22:17:00,
2013-04-19 18:33:00,39.7,31.1,29.49,West,270,8.3,-999.0,71,-99.99,,,1.06,Acu-Link.com,2013-04-19 22:33:00,
2013-04-19 18:48:00,38.5,31.9,29.50,West,270,9.9,-999.0,77,-99.99,,,1.06,Acu-Link.com,2013-04-19 22:48:00,
2013-04-19 19:03:00,38.5,30.9,29.51,West,270,10.9,-999.0,74,-99.99,,,1.06,Acu-Link.com,2013-04-19 23:03:00,
2013-04-19 19:18:00,38.5,30.6,29.51,West,270,10.4,-999.0,73,-99.99,,,1.06,Acu-Link.com,2013-04-19 23:18:00,
2013-04-19 19:34:00,38.5,30.9,29.52,SSW,202,12.5,-999.0,74,-99.99,,,1.06,Acu-Link.com,2013-04-19 23:34:00,
2013-04-19 19:49:00,38.1,30.9,29.53,SW,225,10.9,-999.0,75,-99.99,,,1.06,Acu-Link.com,2013-04-19 23:49:00,
2013-04-19 20:05:00,38.1,30.6,29.53,West,270,12.5,-999.0,74,-99.99,,,1.06,Acu-Link.com,2013-04-20 00:05:00,
2013-04-19 20:20:00,37.9,30.7,29.54,West,270,6.3,-999.0,75,-99.99,,,1.06,Acu-Link.com,2013-04-20 00:20:00,
2013-04-19 20:36:00,37.9,30.7,29.54,West,270,7.3,-999.0,75,-99.99,,,1.06,Acu-Link.com,2013-04-20 00:36:00,
2013-04-19 20:51:00,37.2,31.3,29.55,West,270,10.4,-999.0,79,-99.99,,,1.06,Acu-Link.com,2013-04-20 00:51:00,
2013-04-19 21:06:00,37.2,31.3,29.56,West,270,6.3,-999.0,79,-99.99,,,1.06,Acu-Link.com,2013-04-20 01:06:00,
2013-04-19 21:21:00,36.7,32.0,29.56,SW,225,5.8,-999.0,83,-99.99,,,1.06,Acu-Link.com,2013-04-20 01:21:00,
2013-04-19 21:36:00,36.1,32.3,29.57,West,270,4.7,-999.0,86,-99.99,,,1.06,Acu-Link.com,2013-04-20 01:36:00,
2013-04-19 21:53:00,35.8,32.3,29.57,West,270,6.3,-999.0,87,-99.99,,,1.06,Acu-Link.com,2013-04-20 01:53:00,
2013-04-19 22:08:00,35.2,32.3,29.58,SW,225,5.3,-999.0,89,-99.99,,,1.06,Acu-Link.com,2013-04-20 02:08:00,
2013-04-19 22:23:00,35.6,31.8,29.58,WSW,247,10.4,-999.0,86,-99.99,,,1.06,Acu-Link.com,2013-04-20 02:23:00,
2013-04-19 22:39:00,36.1,31.7,29.58,West,270,6.3,-999.0,84,-99.99,,,1.06,Acu-Link.com,2013-04-20 02:39:00,
2013-04-19 22:54:00,34.3,32.2,29.60,SSW,202,2.7,-999.0,92,-99.99,,,1.06,Acu-Link.com,2013-04-20 02:54:00,
2013-04-19 23:09:00,32.7,31.4,29.59,WNW,292,3.2,-999.0,95,-99.99,,,1.06,Acu-Link.com,2013-04-20 03:09:00,
2013-04-19 23:26:00,32.2,32.0,29.60,West,270,4.7,-999.0,99,-99.99,,,1.06,Acu-Link.com,2013-04-20 03:26:00,
2013-04-19 23:42:00,32.0,31.8,29.60,West,270,3.7,-999.0,99,-99.99,,,1.06,Acu-Link.com,2013-04-20 03:42:00,
2013-04-19 23:58:00,31.6,30.6,29.60,WSW,247,4.2,-999.0,96,-99.99,,,1.06,Acu-Link.com,2013-04-20 03:58:00,